Tracking 30685 objects as of 17-Jun-2025
HD Live streaming from Space Station
objects crossing your sky now

NOAA 16 DEB

Track NOAA 16 DEB now!
10-day predictions


NORAD ID: 41281
Int'l Code: 2000-055GH
Perigee: 797.2 km
Apogee: 846.4 km
Inclination: 98.8 °
Period: 101.2 minutes
Semi major axis: 7192 km
RCS: Unknown
Launch date: September 21, 2000
Source: United States (US)
Launch site: AIR FORCE WESTERN TEST RANGE (AFWTR)

Note: This is SATELLITE DEBRIS
Your satellite tracking list
Your tracking list is empty




NASA's NSSDC Master Catalog

Two Line Element Set (TLE):
1 41281U 00055GH  25167.89798154  .00003951  00000-0  17568-2 0  9995
2 41281  98.8169 228.2739 0034174 187.6628 172.4032 14.23172244487434
Source of the keplerian elements: AFSPC